owner,sensor,date,latitude,longitude,vertical_datum,sea_water_speed,direction_of_sea_water_velocity,upward_sea_water_velocity,qcFlag
Anadarko,ioos:station:wmo:42373:1,2022-12-01T00:04:00Z,27.3539,-94.6254,79.0,7.1,98.9,-9999.0,'111111111,111111111,999999991'
Anadarko,ioos:station:wmo:42373:1,2022-12-01T00:24:00Z,27.3539,-94.6254,79.0,8.3,112.6,-9999.0,'111111111,111111111,999999991'
Anadarko,ioos:station:wmo:42373:1,2022-12-01T00:44:00Z,27.3539,-94.6254,79.0,10.0,112.2,-9999.0,'111111111,111111111,999999991'
Anadarko,ioos:station:wmo:42373:1,2022-12-01T01:04:00Z,27.3539,-94.6254,79.0,11.7,124.2,-9999.0,'111111111,111111111,999999991'
Anadarko,ioos:station:wmo:42373:1,2022-12-01T01:24:00Z,27.3539,-94.6254,79.0,9.3,131.9,-9999.0,'111111111,111111111,999999991'
Anadarko,ioos:station:wmo:42373:1,2022-12-01T01:44:00Z,27.3539,-94.6254,79.0,6.8,127.9,-9999.0,'111111111,111111111,999999991'
Anadarko,ioos:station:wmo:42373:1,2022-12-01T02:04:00Z,27.3539,-94.6254,79.0,11.4,130.4,-9999.0,'111111111,111111111,999999991'
Anadarko,ioos:station:wmo:42373:1,2022-12-01T02:24:00Z,27.3539,-94.6254,79.0,9.5,137.6,-9999.0,'111111111,111111111,999999991'
Anadarko,ioos:station:wmo:42373:1,2022-12-01T02:44:00Z,27.3539,-94.6254,79.0,7.8,147.5,-9999.0,'111111111,111111111,999999991'
Anadarko,ioos:station:wmo:42373:1,2022-12-01T03:04:00Z,27.3539,-94.6254,79.0,6.9,143.8,-9999.0,'111111111,111111111,999999991'
Anadarko,ioos:station:wmo:42373:1,2022-12-01T03:24:00Z,27.3539,-94.6254,79.0,6.5,160.2,-9999.0,'111111111,111111111,999999991'
Anadarko,ioos:station:wmo:42373:1,2022-12-01T03:44:00Z,27.3539,-94.6254,79.0,6.2,163.0,-9999.0,'111111111,111111111,999999991'
Anadarko,ioos:station:wmo:42373:1,2022-12-01T04:04:00Z,27.3539,-94.6254,79.0,6.6,189.6,-9999.0,'111111111,111111111,999999991'
Anadarko,ioos:station:wmo:42373:1,2022-12-01T04:24:00Z,27.3539,-94.6254,79.0,9.1,180.0,-9999.0,'111111111,111111111,999999991'
Anadarko,ioos:station:wmo:42373:1,2022-12-01T04:44:00Z,27.3539,-94.6254,79.0,9.8,177.1,-9999.0,'111111111,111111111,999999991'
Anadarko,ioos:station:wmo:42373:1,2022-12-01T05:04:00Z,27.3539,-94.6254,79.0,7.9,176.4,-9999.0,'111111111,111111111,999999991'
Anadarko,ioos:station:wmo:42373:1,2022-12-01T05:24:00Z,27.3539,-94.6254,79.0,9.3,168.2,-9999.0,'111111111,111111111,999999991'
Anadarko,ioos:station:wmo:42373:1,2022-12-01T05:44:00Z,27.3539,-94.6254,79.0,10.4,172.8,-9999.0,'111111111,111111111,999999991'
Anadarko,ioos:station:wmo:42373:1,2022-12-01T06:04:00Z,27.3539,-94.6254,79.0,10.7,167.5,-9999.0,'111111111,111111111,999999991'
Anadarko,ioos:station:wmo:42373:1,2022-12-01T06:24:00Z,27.3539,-94.6254,79.0,11.2,179.0,-9999.0,'111111111,111111111,999999991'
Anadarko,ioos:station:wmo:42373:1,2022-12-01T06:44:00Z,27.3539,-94.6254,79.0,9.8,176.5,-9999.0,'111111111,111111111,999999991'
Anadarko,ioos:station:wmo:42373:1,2022-12-01T07:04:00Z,27.3539,-94.6254,79.0,13.0,169.4,-9999.0,'111111111,111111111,999999991'
Anadarko,ioos:station:wmo:42373:1,2022-12-01T07:24:00Z,27.3539,-94.6254,79.0,13.9,173.4,-9999.0,'111111111,111111111,999999991'
Anadarko,ioos:station:wmo:42373:1,2022-12-01T07:44:00Z,27.3539,-94.6254,79.0,13.0,168.4,-9999.0,'111111111,111111111,999999991'
Anadarko,ioos:station:wmo:42373:1,2022-12-01T08:04:00Z,27.3539,-94.6254,79.0,14.8,172.3,-9999.0,'111111111,111111111,999999991'
Anadarko,ioos:station:wmo:42373:1,2022-12-01T08:24:00Z,27.3539,-94.6254,79.0,14.3,181.6,-9999.0,'111111111,111111111,999999991'
Anadarko,ioos:station:wmo:42373:1,2022-12-01T08:44:00Z,27.3539,-94.6254,79.0,11.7,173.1,-9999.0,'111111111,111111111,999999991'
Anadarko,ioos:station:wmo:42373:1,2022-12-01T09:04:00Z,27.3539,-94.6254,79.0,13.6,174.1,-9999.0,'111111111,111111111,999999991'
Anadarko,ioos:station:wmo:42373:1,2022-12-01T09:24:00Z,27.3539,-94.6254,79.0,14.0,174.7,-9999.0,'111111111,111111111,999999991'
Anadarko,ioos:station:wmo:42373:1,2022-12-01T09:44:00Z,27.3539,-94.6254,79.0,14.3,173.2,-9999.0,'111111111,111111111,999999991'
Anadarko,ioos:station:wmo:42373:1,2022-12-01T10:04:00Z,27.3539,-94.6254,79.0,16.4,175.1,-9999.0,'111111111,111111111,999999991'
Anadarko,ioos:station:wmo:42373:1,2022-12-01T10:24:00Z,27.3539,-94.6254,79.0,16.6,169.2,-9999.0,'111111111,111111111,999999991'
Anadarko,ioos:station:wmo:42373:1,2022-12-01T10:44:00Z,27.3539,-94.6254,79.0,17.8,167.0,-9999.0,'111111111,111111111,999999991'
Anadarko,ioos:station:wmo:42373:1,2022-12-01T11:04:00Z,27.3539,-94.6254,79.0,19.0,171.5,-9999.0,'111111111,111111111,999999991'
Anadarko,ioos:station:wmo:42373:1,2022-12-01T11:24:00Z,27.3539,-94.6254,79.0,19.3,179.1,-9999.0,'111111111,111111111,999999991'
Anadarko,ioos:station:wmo:42373:1,2022-12-01T11:44:00Z,27.3539,-94.6254,79.0,19.6,175.9,-9999.0,'111111111,111111111,999999991'
Anadarko,ioos:station:wmo:42373:1,2022-12-01T12:04:00Z,27.3539,-94.6254,79.0,20.2,182.0,-9999.0,'111111111,111111111,999999991'
Anadarko,ioos:station:wmo:42373:1,2022-12-01T12:24:00Z,27.3539,-94.6254,79.0,22.3,183.3,-9999.0,'111111111,111111111,999999991'
Anadarko,ioos:station:wmo:42373:1,2022-12-01T12:44:00Z,27.3539,-94.6254,79.0,19.0,174.0,-9999.0,'111111111,111111111,999999991'
Anadarko,ioos:station:wmo:42373:1,2022-12-01T13:04:00Z,27.3539,-94.6254,79.0,17.1,176.0,-9999.0,'111111111,111111111,999999991'
Anadarko,ioos:station:wmo:42373:1,2022-12-01T13:24:00Z,27.3539,-94.6254,79.0,13.7,176.2,-9999.0,'111111111,111111111,999999991'
Anadarko,ioos:station:wmo:42373:1,2022-12-01T13:44:00Z,27.3539,-94.6254,79.0,10.7,176.3,-9999.0,'111111111,111111111,999999991'
Anadarko,ioos:station:wmo:42373:1,2022-12-01T14:04:00Z,27.3539,-94.6254,79.0,10.5,185.4,-9999.0,'111111111,111111111,999999991'
Anadarko,ioos:station:wmo:42373:1,2022-12-01T14:24:00Z,27.3539,-94.6254,79.0,11.3,177.5,-9999.0,'111111111,111111111,999999991'
Anadarko,ioos:station:wmo:42373:1,2022-12-01T14:44:00Z,27.3539,-94.6254,79.0,13.1,172.1,-9999.0,'111111111,111111111,999999991'
Anadarko,ioos:station:wmo:42373:1,2022-12-01T15:04:00Z,27.3539,-94.6254,79.0,11.4,173.4,-9999.0,'111111111,111111111,999999991'
Anadarko,ioos:station:wmo:42373:1,2022-12-01T15:24:00Z,27.3539,-94.6254,79.0,11.0,181.0,-9999.0,'111111111,111111111,999999991'
Anadarko,ioos:station:wmo:42373:1,2022-12-01T15:44:00Z,27.3539,-94.6254,79.0,12.0,176.7,-9999.0,'111111111,111111111,999999991'
Anadarko,ioos:station:wmo:42373:1,2022-12-01T16:04:00Z,27.3539,-94.6254,79.0,11.8,180.5,-9999.0,'111111111,111111111,999999991'
Anadarko,ioos:station:wmo:42373:1,2022-12-01T16:24:00Z,27.3539,-94.6254,79.0,12.8,179.1,-9999.0,'111111111,111111111,999999991'
Anadarko,ioos:station:wmo:42373:1,2022-12-01T16:44:00Z,27.3539,-94.6254,79.0,12.0,177.6,-9999.0,'111111111,111111111,999999991'
Anadarko,ioos:station:wmo:42373:1,2022-12-01T17:04:00Z,27.3539,-94.6254,79.0,13.0,176.5,-9999.0,'111111111,111111111,999999991'
Anadarko,ioos:station:wmo:42373:1,2022-12-01T17:24:00Z,27.3539,-94.6254,79.0,12.9,174.2,-9999.0,'111111111,111111111,999999991'
Anadarko,ioos:station:wmo:42373:1,2022-12-01T17:44:00Z,27.3539,-94.6254,79.0,12.9,173.8,-9999.0,'111111111,111111111,999999991'
Anadarko,ioos:station:wmo:42373:1,2022-12-01T18:04:00Z,27.3539,-94.6254,79.0,15.1,177.7,-9999.0,'111111111,111111111,999999991'
Anadarko,ioos:station:wmo:42373:1,2022-12-01T18:24:00Z,27.3539,-94.6254,79.0,12.8,181.3,-9999.0,'111111111,111111111,999999991'
Anadarko,ioos:station:wmo:42373:1,2022-12-01T18:44:00Z,27.3539,-94.6254,79.0,15.8,172.4,-9999.0,'111111111,111111111,999999991'
Anadarko,ioos:station:wmo:42373:1,2022-12-01T19:04:00Z,27.3539,-94.6254,79.0,12.0,178.1,-9999.0,'111111111,111111111,999999991'
Anadarko,ioos:station:wmo:42373:1,2022-12-01T19:24:00Z,27.3539,-94.6254,79.0,10.0,185.1,-9999.0,'111111111,111111111,999999991'
Anadarko,ioos:station:wmo:42373:1,2022-12-01T19:44:00Z,27.3539,-94.6254,79.0,9.9,178.3,-9999.0,'111111111,111111111,999999991'
Anadarko,ioos:station:wmo:42373:1,2022-12-01T20:04:00Z,27.3539,-94.6254,79.0,9.5,178.2,-9999.0,'111111111,111111111,999999991'
Anadarko,ioos:station:wmo:42373:1,2022-12-01T20:24:00Z,27.3539,-94.6254,79.0,8.5,176.0,-9999.0,'111111111,111111111,999999991'
Anadarko,ioos:station:wmo:42373:1,2022-12-01T20:44:00Z,27.3539,-94.6254,79.0,8.9,181.3,-9999.0,'111111111,111111111,999999991'
Anadarko,ioos:station:wmo:42373:1,2022-12-01T21:04:00Z,27.3539,-94.6254,79.0,8.3,188.3,-9999.0,'111111111,111111111,999999991'
Anadarko,ioos:station:wmo:42373:1,2022-12-01T21:24:00Z,27.3539,-94.6254,79.0,8.3,189.0,-9999.0,'111111111,111111111,999999991'
Anadarko,ioos:station:wmo:42373:1,2022-12-01T21:44:00Z,27.3539,-94.6254,79.0,8.8,175.5,-9999.0,'111111111,111111111,999999991'
Anadarko,ioos:station:wmo:42373:1,2022-12-01T22:04:00Z,27.3539,-94.6254,79.0,7.8,173.3,-9999.0,'111111111,111111111,999999991'
Anadarko,ioos:station:wmo:42373:1,2022-12-01T22:24:00Z,27.3539,-94.6254,79.0,7.6,170.2,-9999.0,'111111111,111111111,999999991'
Anadarko,ioos:station:wmo:42373:1,2022-12-01T22:44:00Z,27.3539,-94.6254,79.0,6.8,153.1,-9999.0,'111111111,111111111,999999991'
Anadarko,ioos:station:wmo:42373:1,2022-12-01T23:04:00Z,27.3539,-94.6254,79.0,8.3,153.4,-9999.0,'111111111,111111111,999999991'
Anadarko,ioos:station:wmo:42373:1,2022-12-01T23:24:00Z,27.3539,-94.6254,79.0,6.1,147.1,-9999.0,'111111111,111111111,999999991'
Anadarko,ioos:station:wmo:42373:1,2022-12-01T23:44:00Z,27.3539,-94.6254,79.0,6.7,153.4,-9999.0,'111111111,111111111,999999991'
Anadarko,ioos:station:wmo:42373:1,2022-12-02T00:04:00Z,27.3539,-94.6254,79.0,7.8,124.5,-9999.0,'111111111,111111111,999999991'
Anadarko,ioos:station:wmo:42373:1,2022-12-02T00:24:00Z,27.3539,-94.6254,79.0,7.7,105.8,-9999.0,'111111111,111111111,999999991'
Anadarko,ioos:station:wmo:42373:1,2022-12-02T00:44:00Z,27.3539,-94.6254,79.0,9.9,108.8,-9999.0,'111111111,111111111,999999991'
Anadarko,ioos:station:wmo:42373:1,2022-12-02T01:04:00Z,27.3539,-94.6254,79.0,9.3,94.3,-9999.0,'111111111,111111111,999999991'
Anadarko,ioos:station:wmo:42373:1,2022-12-02T01:24:00Z,27.3539,-94.6254,79.0,11.2,90.0,-9999.0,'111111111,111111111,999999991'
Anadarko,ioos:station:wmo:42373:1,2022-12-02T01:44:00Z,27.3539,-94.6254,79.0,12.8,97.2,-9999.0,'111111111,111111111,999999991'
Anadarko,ioos:station:wmo:42373:1,2022-12-02T02:04:00Z,27.3539,-94.6254,79.0,13.3,93.9,-9999.0,'111111111,111111111,999999991'
Anadarko,ioos:station:wmo:42373:1,2022-12-02T02:24:00Z,27.3539,-94.6254,79.0,11.2,91.5,-9999.0,'111111111,111111111,999999991'
Anadarko,ioos:station:wmo:42373:1,2022-12-02T02:44:00Z,27.3539,-94.6254,79.0,10.1,102.0,-9999.0,'111111111,111111111,999999991'
Anadarko,ioos:station:wmo:42373:1,2022-12-02T03:04:00Z,27.3539,-94.6254,79.0,11.7,91.0,-9999.0,'111111111,111111111,999999991'
Anadarko,ioos:station:wmo:42373:1,2022-12-02T03:24:00Z,27.3539,-94.6254,79.0,12.1,100.9,-9999.0,'111111111,111111111,999999991'
Anadarko,ioos:station:wmo:42373:1,2022-12-02T03:44:00Z,27.3539,-94.6254,79.0,11.3,89.5,-9999.0,'111111111,111111111,999999991'
Anadarko,ioos:station:wmo:42373:1,2022-12-02T04:04:00Z,27.3539,-94.6254,79.0,10.6,85.1,-9999.0,'111111111,111111111,999999991'
Anadarko,ioos:station:wmo:42373:1,2022-12-02T04:24:00Z,27.3539,-94.6254,79.0,11.4,72.0,-9999.0,'111111111,111111111,999999991'
Anadarko,ioos:station:wmo:42373:1,2022-12-02T04:44:00Z,27.3539,-94.6254,79.0,10.1,68.0,-9999.0,'111111111,111111111,999999991'
Anadarko,ioos:station:wmo:42373:1,2022-12-02T05:04:00Z,27.3539,-94.6254,79.0,6.2,65.1,-9999.0,'111111111,111111111,999999991'
Anadarko,ioos:station:wmo:42373:1,2022-12-02T05:24:00Z,27.3539,-94.6254,79.0,7.4,85.4,-9999.0,'111111111,111111111,999999991'
Anadarko,ioos:station:wmo:42373:1,2022-12-02T05:44:00Z,27.3539,-94.6254,79.0,9.4,108.0,-9999.0,'111111111,111111111,999999991'
Anadarko,ioos:station:wmo:42373:1,2022-12-02T06:04:00Z,27.3539,-94.6254,79.0,10.1,113.3,-9999.0,'111111111,111111111,999999991'
Anadarko,ioos:station:wmo:42373:1,2022-12-02T06:24:00Z,27.3539,-94.6254,79.0,10.6,114.6,-9999.0,'111111111,111111111,999999991'
Anadarko,ioos:station:wmo:42373:1,2022-12-02T06:44:00Z,27.3539,-94.6254,79.0,11.4,138.9,-9999.0,'111111111,111111111,999999991'
Anadarko,ioos:station:wmo:42373:1,2022-12-02T07:04:00Z,27.3539,-94.6254,79.0,10.2,133.4,-9999.0,'111111111,111111111,999999991'
Anadarko,ioos:station:wmo:42373:1,2022-12-02T07:24:00Z,27.3539,-94.6254,79.0,10.3,143.7,-9999.0,'111111111,111111111,999999991'
Anadarko,ioos:station:wmo:42373:1,2022-12-02T07:44:00Z,27.3539,-94.6254,79.0,10.6,146.9,-9999.0,'111111111,111111111,999999991'
Anadarko,ioos:station:wmo:42373:1,2022-12-02T08:04:00Z,27.3539,-94.6254,79.0,10.2,155.2,-9999.0,'111111111,111111111,999999991'
Anadarko,ioos:station:wmo:42373:1,2022-12-02T08:24:00Z,27.3539,-94.6254,79.0,9.2,148.4,-9999.0,'111111111,111111111,999999991'
Anadarko,ioos:station:wmo:42373:1,2022-12-02T08:44:00Z,27.3539,-94.6254,79.0,9.0,159.1,-9999.0,'111111111,111111111,999999991'
Anadarko,ioos:station:wmo:42373:1,2022-12-02T09:04:00Z,27.3539,-94.6254,79.0,9.4,145.8,-9999.0,'111111111,111111111,999999991'
Anadarko,ioos:station:wmo:42373:1,2022-12-02T09:24:00Z,27.3539,-94.6254,79.0,11.5,152.1,-9999.0,'111111111,111111111,999999991'
Anadarko,ioos:station:wmo:42373:1,2022-12-02T09:44:00Z,27.3539,-94.6254,79.0,9.6,166.7,-9999.0,'111111111,111111111,999999991'
Anadarko,ioos:station:wmo:42373:1,2022-12-02T10:04:00Z,27.3539,-94.6254,79.0,8.0,167.0,-9999.0,'111111111,111111111,999999991'
Anadarko,ioos:station:wmo:42373:1,2022-12-02T10:24:00Z,27.3539,-94.6254,79.0,9.6,192.0,-9999.0,'111111111,111111111,999999991'
Anadarko,ioos:station:wmo:42373:1,2022-12-02T10:44:00Z,27.3539,-94.6254,79.0,8.9,181.3,-9999.0,'111111111,111111111,999999991'
Anadarko,ioos:station:wmo:42373:1,2022-12-02T11:04:00Z,27.3539,-94.6254,79.0,10.3,178.9,-9999.0,'111111111,111111111,999999991'
Anadarko,ioos:station:wmo:42373:1,2022-12-02T11:24:00Z,27.3539,-94.6254,79.0,11.5,178.0,-9999.0,'111111111,111111111,999999991'
Anadarko,ioos:station:wmo:42373:1,2022-12-02T11:44:00Z,27.3539,-94.6254,79.0,12.6,176.8,-9999.0,'111111111,111111111,999999991'
Anadarko,ioos:station:wmo:42373:1,2022-12-02T12:04:00Z,27.3539,-94.6254,79.0,10.0,178.9,-9999.0,'111111111,111111111,999999991'
Anadarko,ioos:station:wmo:42373:1,2022-12-02T12:24:00Z,27.3539,-94.6254,79.0,12.4,160.7,-9999.0,'111111111,111111111,999999991'
Anadarko,ioos:station:wmo:42373:1,2022-12-02T12:44:00Z,27.3539,-94.6254,79.0,10.0,167.9,-9999.0,'111111111,111111111,999999991'
Anadarko,ioos:station:wmo:42373:1,2022-12-02T13:04:00Z,27.3539,-94.6254,79.0,10.7,169.7,-9999.0,'111111111,111111111,999999991'
Anadarko,ioos:station:wmo:42373:1,2022-12-02T13:24:00Z,27.3539,-94.6254,79.0,13.8,165.8,-9999.0,'111111111,111111111,999999991'
Anadarko,ioos:station:wmo:42373:1,2022-12-02T13:44:00Z,27.3539,-94.6254,79.0,11.3,168.3,-9999.0,'111111111,111111111,999999991'
Anadarko,ioos:station:wmo:42373:1,2022-12-02T14:04:00Z,27.3539,-94.6254,79.0,9.4,165.2,-9999.0,'111111111,111111111,999999991'
Anadarko,ioos:station:wmo:42373:1,2022-12-02T14:24:00Z,27.3539,-94.6254,79.0,9.0,156.6,-9999.0,'111111111,111111111,999999991'
Anadarko,ioos:station:wmo:42373:1,2022-12-02T14:44:00Z,27.3539,-94.6254,79.0,8.6,146.9,-9999.0,'111111111,111111111,999999991'
Anadarko,ioos:station:wmo:42373:1,2022-12-02T15:04:00Z,27.3539,-94.6254,79.0,11.3,154.3,-9999.0,'111111111,111111111,999999991'
Anadarko,ioos:station:wmo:42373:1,2022-12-02T15:24:00Z,27.3539,-94.6254,79.0,10.7,162.6,-9999.0,'111111111,111111111,999999991'
Anadarko,ioos:station:wmo:42373:1,2022-12-02T15:44:00Z,27.3539,-94.6254,79.0,10.0,167.3,-9999.0,'111111111,111111111,999999991'
Anadarko,ioos:station:wmo:42373:1,2022-12-02T16:04:00Z,27.3539,-94.6254,79.0,11.1,165.3,-9999.0,'111111111,111111111,999999991'
Anadarko,ioos:station:wmo:42373:1,2022-12-02T16:24:00Z,27.3539,-94.6254,79.0,8.6,150.8,-9999.0,'111111111,111111111,999999991'
Anadarko,ioos:station:wmo:42373:1,2022-12-02T16:44:00Z,27.3539,-94.6254,79.0,12.3,164.9,-9999.0,'111111111,111111111,999999991'
Anadarko,ioos:station:wmo:42373:1,2022-12-02T17:04:00Z,27.3539,-94.6254,79.0,12.4,166.5,-9999.0,'111111111,111111111,999999991'
Anadarko,ioos:station:wmo:42373:1,2022-12-02T17:24:00Z,27.3539,-94.6254,79.0,12.8,158.9,-9999.0,'111111111,111111111,999999991'
Anadarko,ioos:station:wmo:42373:1,2022-12-02T17:44:00Z,27.3539,-94.6254,79.0,11.3,162.5,-9999.0,'111111111,111111111,999999991'
Anadarko,ioos:station:wmo:42373:1,2022-12-02T18:04:00Z,27.3539,-94.6254,79.0,12.0,166.5,-9999.0,'111111111,111111111,999999991'
Anadarko,ioos:station:wmo:42373:1,2022-12-02T18:24:00Z,27.3539,-94.6254,79.0,11.4,167.3,-9999.0,'111111111,111111111,999999991'
Anadarko,ioos:station:wmo:42373:1,2022-12-02T18:44:00Z,27.3539,-94.6254,79.0,11.7,160.5,-9999.0,'111111111,111111111,999999991'
Anadarko,ioos:station:wmo:42373:1,2022-12-02T19:04:00Z,27.3539,-94.6254,79.0,13.0,166.2,-9999.0,'111111111,111111111,999999991'
Anadarko,ioos:station:wmo:42373:1,2022-12-02T19:24:00Z,27.3539,-94.6254,79.0,12.0,174.7,-9999.0,'111111111,111111111,999999991'
Anadarko,ioos:station:wmo:42373:1,2022-12-02T19:44:00Z,27.3539,-94.6254,79.0,12.1,176.7,-9999.0,'111111111,111111111,999999991'
Anadarko,ioos:station:wmo:42373:1,2022-12-02T20:04:00Z,27.3539,-94.6254,79.0,13.2,177.4,-9999.0,'111111111,111111111,999999991'
Anadarko,ioos:station:wmo:42373:1,2022-12-02T20:24:00Z,27.3539,-94.6254,79.0,11.6,183.5,-9999.0,'111111111,111111111,999999991'
Anadarko,ioos:station:wmo:42373:1,2022-12-02T20:44:00Z,27.3539,-94.6254,79.0,12.6,184.1,-9999.0,'111111111,111111111,999999991'
Anadarko,ioos:station:wmo:42373:1,2022-12-02T21:04:00Z,27.3539,-94.6254,79.0,10.0,181.1,-9999.0,'111111111,111111111,999999991'
Anadarko,ioos:station:wmo:42373:1,2022-12-02T21:24:00Z,27.3539,-94.6254,79.0,8.6,193.4,-9999.0,'111111111,111111111,999999991'
Anadarko,ioos:station:wmo:42373:1,2022-12-02T21:44:00Z,27.3539,-94.6254,79.0,10.1,186.8,-9999.0,'111111111,111111111,999999991'
Anadarko,ioos:station:wmo:42373:1,2022-12-02T22:04:00Z,27.3539,-94.6254,79.0,11.3,173.4,-9999.0,'111111111,111111111,999999991'
Anadarko,ioos:station:wmo:42373:1,2022-12-02T22:24:00Z,27.3539,-94.6254,79.0,9.2,190.7,-9999.0,'111111111,111111111,999999991'
Anadarko,ioos:station:wmo:42373:1,2022-12-02T22:44:00Z,27.3539,-94.6254,79.0,11.2,174.3,-9999.0,'111111111,111111111,999999991'
Anadarko,ioos:station:wmo:42373:1,2022-12-02T23:04:00Z,27.3539,-94.6254,79.0,9.6,168.0,-9999.0,'111111111,111111111,999999991'
Anadarko,ioos:station:wmo:42373:1,2022-12-02T23:24:00Z,27.3539,-94.6254,79.0,8.2,182.8,-9999.0,'111111111,111111111,999999991'
Anadarko,ioos:station:wmo:42373:1,2022-12-02T23:44:00Z,27.3539,-94.6254,79.0,5.9,163.1,-9999.0,'111111111,111111111,999999991'
Anadarko,ioos:station:wmo:42373:1,2022-12-03T00:04:00Z,27.3539,-94.6254,79.0,3.6,144.1,-9999.0,'111111111,111111111,999999991'
Anadarko,ioos:station:wmo:42373:1,2022-12-03T00:24:00Z,27.3539,-94.6254,79.0,2.7,23.7,-9999.0,'111331111,111111111,999999991'
Anadarko,ioos:station:wmo:42373:1,2022-12-03T00:44:00Z,27.3539,-94.6254,79.0,3.2,69.9,-9999.0,'111111111,111111111,999999991'
Anadarko,ioos:station:wmo:42373:1,2022-12-03T01:04:00Z,27.3539,-94.6254,79.0,5.8,105.9,-9999.0,'111111111,111111111,999999991'
Anadarko,ioos:station:wmo:42373:1,2022-12-03T01:24:00Z,27.3539,-94.6254,79.0,5.9,99.8,-9999.0,'111111111,111111111,999999991'
Anadarko,ioos:station:wmo:42373:1,2022-12-03T01:44:00Z,27.3539,-94.6254,79.0,6.7,103.8,-9999.0,'111111111,111111111,999999991'
Anadarko,ioos:station:wmo:42373:1,2022-12-03T02:04:00Z,27.3539,-94.6254,79.0,5.3,80.2,-9999.0,'111111111,111111111,999999991'
Anadarko,ioos:station:wmo:42373:1,2022-12-03T02:24:00Z,27.3539,-94.6254,79.0,5.0,43.4,-9999.0,'111111111,111111111,999999991'
Anadarko,ioos:station:wmo:42373:1,2022-12-03T02:44:00Z,27.3539,-94.6254,79.0,2.8,358.0,-9999.0,'111331111,111111111,999999991'
Anadarko,ioos:station:wmo:42373:1,2022-12-03T03:04:00Z,27.3539,-94.6254,79.0,4.3,32.6,-9999.0,'111111111,111111111,999999991'
Anadarko,ioos:station:wmo:42373:1,2022-12-03T03:24:00Z,27.3539,-94.6254,79.0,6.1,47.7,-9999.0,'111111111,111111111,999999991'
Anadarko,ioos:station:wmo:42373:1,2022-12-03T03:44:00Z,27.3539,-94.6254,79.0,7.8,55.9,-9999.0,'111111111,111111111,999999991'
Anadarko,ioos:station:wmo:42373:1,2022-12-03T04:04:00Z,27.3539,-94.6254,79.0,9.2,46.8,-9999.0,'111111111,111111111,999999991'
Anadarko,ioos:station:wmo:42373:1,2022-12-03T04:24:00Z,27.3539,-94.6254,79.0,10.2,40.2,-9999.0,'111111111,111111111,999999991'
Anadarko,ioos:station:wmo:42373:1,2022-12-03T04:44:00Z,27.3539,-94.6254,79.0,11.0,58.3,-9999.0,'111111111,111111111,999999991'
Anadarko,ioos:station:wmo:42373:1,2022-12-03T05:04:00Z,27.3539,-94.6254,79.0,12.1,49.7,-9999.0,'111111111,111111111,999999991'
Anadarko,ioos:station:wmo:42373:1,2022-12-03T05:24:00Z,27.3539,-94.6254,79.0,10.7,56.5,-9999.0,'111111111,111111111,999999991'
Anadarko,ioos:station:wmo:42373:1,2022-12-03T05:44:00Z,27.3539,-94.6254,79.0,11.3,67.7,-9999.0,'111111111,111111111,999999991'
Anadarko,ioos:station:wmo:42373:1,2022-12-03T06:04:00Z,27.3539,-94.6254,79.0,12.3,74.9,-9999.0,'111111111,111111111,999999991'
Anadarko,ioos:station:wmo:42373:1,2022-12-03T06:24:00Z,27.3539,-94.6254,79.0,11.0,79.5,-9999.0,'111111111,111111111,999999991'
Anadarko,ioos:station:wmo:42373:1,2022-12-03T06:44:00Z,27.3539,-94.6254,79.0,12.8,87.3,-9999.0,'111111111,111111111,999999991'
Anadarko,ioos:station:wmo:42373:1,2022-12-03T07:04:00Z,27.3539,-94.6254,79.0,10.4,76.6,-9999.0,'111111111,111111111,999999991'
Anadarko,ioos:station:wmo:42373:1,2022-12-03T07:24:00Z,27.3539,-94.6254,79.0,10.2,64.4,-9999.0,'111111111,111111111,999999991'
Anadarko,ioos:station:wmo:42373:1,2022-12-03T07:44:00Z,27.3539,-94.6254,79.0,9.2,79.3,-9999.0,'111111111,111111111,999999991'
Anadarko,ioos:station:wmo:42373:1,2022-12-03T08:04:00Z,27.3539,-94.6254,79.0,9.3,107.5,-9999.0,'111111111,111111111,999999991'
Anadarko,ioos:station:wmo:42373:1,2022-12-03T08:24:00Z,27.3539,-94.6254,79.0,10.3,121.1,-9999.0,'111111111,111111111,999999991'
Anadarko,ioos:station:wmo:42373:1,2022-12-03T08:44:00Z,27.3539,-94.6254,79.0,13.5,111.8,-9999.0,'111111111,111111111,999999991'
Anadarko,ioos:station:wmo:42373:1,2022-12-03T09:04:00Z,27.3539,-94.6254,79.0,11.4,126.1,-9999.0,'111111111,111111111,999999991'
Anadarko,ioos:station:wmo:42373:1,2022-12-03T09:24:00Z,27.3539,-94.6254,79.0,14.6,129.2,-9999.0,'111111111,111111111,999999991'
Anadarko,ioos:station:wmo:42373:1,2022-12-03T09:44:00Z,27.3539,-94.6254,79.0,15.6,128.8,-9999.0,'111111111,111111111,999999991'
Anadarko,ioos:station:wmo:42373:1,2022-12-03T10:04:00Z,27.3539,-94.6254,79.0,16.8,133.6,-9999.0,'111111111,111111111,999999991'
Anadarko,ioos:station:wmo:42373:1,2022-12-03T10:24:00Z,27.3539,-94.6254,79.0,16.6,137.9,-9999.0,'111111111,111111111,999999991'
Anadarko,ioos:station:wmo:42373:1,2022-12-03T10:44:00Z,27.3539,-94.6254,79.0,17.9,142.5,-9999.0,'111111111,111111111,999999991'
Anadarko,ioos:station:wmo:42373:1,2022-12-03T11:04:00Z,27.3539,-94.6254,79.0,16.3,144.3,-9999.0,'111111111,111111111,999999991'
Anadarko,ioos:station:wmo:42373:1,2022-12-03T11:24:00Z,27.3539,-94.6254,79.0,15.5,151.4,-9999.0,'111111111,111111111,999999991'
Anadarko,ioos:station:wmo:42373:1,2022-12-03T11:44:00Z,27.3539,-94.6254,79.0,16.3,144.0,-9999.0,'111111111,111111111,999999991'
Anadarko,ioos:station:wmo:42373:1,2022-12-03T12:04:00Z,27.3539,-94.6254,79.0,17.2,140.7,-9999.0,'111111111,111111111,999999991'
Anadarko,ioos:station:wmo:42373:1,2022-12-03T12:24:00Z,27.3539,-94.6254,79.0,18.0,146.3,-9999.0,'111111111,111111111,999999991'
Anadarko,ioos:station:wmo:42373:1,2022-12-03T12:44:00Z,27.3539,-94.6254,79.0,15.8,147.1,-9999.0,'111111111,111111111,999999991'
Anadarko,ioos:station:wmo:42373:1,2022-12-03T13:04:00Z,27.3539,-94.6254,79.0,15.1,146.1,-9999.0,'111111111,111111111,999999991'
Anadarko,ioos:station:wmo:42373:1,2022-12-03T13:24:00Z,27.3539,-94.6254,79.0,16.7,145.0,-9999.0,'111111111,111111111,999999991'